Location: Sungai Igah
(2.7333°N, 114.2500°E)
Time: 03:41:42
(UTC+00:00)

Cosmos 1833 Rocket - Pass Details

Date: 14 June 2021
Orbit: 832 x 840 km, 71.0° (Epoch: 02 August)

Event Time Altitude Azimuth Distance (km) Brightness Sun altitude
Exits shadow 19:30:33 30° 76° (ENE) 1,460 4.3 -37.5°
Drops below altitude 10° 19:34:09 10° 41° (NE) 2,441 5.8 -36.8°
Sets 19:36:47 0° 32° (NNE) 3,374 6.6 -36.2°
